Weather History for Green Bay, WI

Change the Weather History Date:

Wednesday, December 4, 2013

  Actual Average Record
Temperature  
Mean Temperature 39 °F 26 °F  
Max Temperature 45 °F 33 °F 60 °F (2001)
Min Temperature 32 °F 19 °F -8 °F (1977)
Degree Days  
Heating Degree Days 26 39  
Month to date heating degree days 119 155  
Since 1 July heating degree days 1730 1895  
Cooling Degree Days 0 0  
Month to date cooling degree days 0 0  
Year to date cooling degree days 535 398  
Moisture  
Dew Point 37 °F    
Average Humidity 93    
Maximum Humidity 100    
Minimum Humidity 85    
Precipitation  
Precipitation 0.17 in 0.06 in 0.50 in (1973)
Month to date precipitation 0.53 0.24  
Year to date precipitation 33.80 28.25  
Snow  
Snow 0.00 in 0.40 in 5.40 in (1944)
Month to date snowfall 3.9 1.5  
Since 1 July snowfall 5.1 5.7  
Snow Depth T in    
Sea Level Pressure  
Sea Level Pressure 29.60 in    
Wind  
Wind Speed 12 mph (East)    
Max Wind Speed 31 mph    
Max Gust Speed 39 mph    
Visibility 3 miles    
Events Fog , Rain    
T = Trace of Precipitation, MM = Missing Value Source: NWS Daily Summary

Daily Weather History Graph

Daily Weather History Graph

Search for Another Location

Airport:

Trip Planner

Search our weather history database for the weather conditions in past years. The results will help you decide how hot, cold, wet, or windy it might be!

Date:

Astronomy

Dec. 04, 2013 Rise Set
Actual Time 7:12 AM CST 4:13 PM CST
Civil Twilight 6:39 AM CST 4:46 PM CST
Nautical Twilight 6:02 AM CST 5:22 PM CST
Astronomical Twilight 5:27 AM CST 5:57 PM CST
Moon 8:38 AM CST (12/4) 6:25 PM CST (12/4)
Length of Visible Light 10h 06m
Length of Day
9h 00m
Waxing Crescent, 4% of the Moon is Illuminated
Dec 4
Waxing Crescent
Dec 9
First Quarter
Dec 17
Full
Dec 25
Last Quarter
Jan 1
New

Hourly Weather History & Observations

Time (CST) Temp. Windchill Dew Point Humidity Pressure Visibility Wind Dir Wind Speed Gust Speed Precip Events Conditions
12:53 AM 33.1 °F 24.4 °F 33.1 °F 100% 29.84 in 6.0 mi NE 11.5 mph - 0.00 in   Overcast
1:53 AM 33.1 °F 23.9 °F 33.1 °F 100% 29.84 in 6.0 mi NE 12.7 mph - 0.00 in   Overcast
2:53 AM 33.1 °F 23.4 °F 33.1 °F 100% 29.83 in 3.0 mi NE 13.8 mph - 0.00 in   Overcast
3:25 AM 33.1 °F 23.9 °F 33.1 °F 100% 29.79 in 2.5 mi NE 12.7 mph - N/A   Overcast
3:48 AM 33.8 °F 24.8 °F 32.0 °F 93% 29.78 in 1.8 mi NNE 12.7 mph - N/A   Overcast
3:53 AM 33.1 °F 24.4 °F 32.0 °F 96% 29.82 in 1.8 mi NNE 11.5 mph - N/A   Overcast
4:53 AM 32.0 °F 22.5 °F 32.0 °F 100% 29.80 in 1.5 mi NE 12.7 mph - N/A   Overcast
5:53 AM 33.1 °F 23.9 °F 33.1 °F 100% 29.80 in 1.5 mi NE 12.7 mph - N/A   Overcast
6:09 AM 33.1 °F 23.9 °F 33.1 °F 100% 29.76 in 0.8 mi NE 12.7 mph - N/A   Mist
6:39 AM 33.1 °F 24.9 °F 33.1 °F 100% 29.77 in 1.0 mi NE 10.4 mph - N/A   Mist
6:53 AM 34.0 °F 25.5 °F 33.1 °F 96% 29.80 in 1.0 mi NE 11.5 mph - N/A   Overcast
7:53 AM 35.1 °F 27.9 °F 35.1 °F 100% 29.80 in 0.8 mi NE 9.2 mph - 0.01 in   Overcast
8:53 AM 35.1 °F 26.9 °F 35.1 °F 100% 29.78 in 0.5 mi NE 11.5 mph - 0.00 in Fog Fog
9:23 AM 35.1 °F 26.4 °F 35.1 °F 100% 29.75 in 0.2 mi NE 12.7 mph - N/A Fog Fog
9:41 AM 35.1 °F 25.9 °F 35.1 °F 100% 29.73 in 0.5 mi ENE 13.8 mph - N/A Fog Fog
9:53 AM 35.1 °F 27.4 °F 35.1 °F 100% 29.75 in 0.8 mi ENE 10.4 mph - N/A   Overcast
10:07 AM 35.1 °F 27.4 °F 35.1 °F 100% 29.73 in 1.0 mi NE 10.4 mph - N/A   Overcast
10:16 AM 35.1 °F 27.4 °F 35.1 °F 100% 29.73 in 0.8 mi ENE 10.4 mph - N/A   Overcast
10:53 AM 36.0 °F 31.1 °F 36.0 °F 100% 29.74 in 0.2 mi NE 5.8 mph - N/A Fog Fog
11:53 AM 35.1 °F 28.6 °F 35.1 °F 100% 29.70 in 0.5 mi NE 8.1 mph - 0.01 in Fog , Rain Light Rain
12:53 PM 36.0 °F 29.0 °F 36.0 °F 100% 29.65 in 0.5 mi NE 9.2 mph - 0.01 in Fog Fog
1:00 PM 36.0 °F 29.6 °F 36.0 °F 100% 29.62 in 0.2 mi NE 8.1 mph - N/A Fog Fog
1:53 PM 37.0 °F 31.0 °F 36.0 °F 96% 29.60 in 0.5 mi East 8.1 mph - 0.01 in Fog Fog
2:14 PM 37.0 °F 31.0 °F 37.0 °F 100% 29.56 in 1.0 mi East 8.1 mph - 0.00 in Rain Light Rain
2:53 PM 37.9 °F 30.5 °F 37.9 °F 100% 29.57 in 0.8 mi ESE 11.5 mph - 0.01 in Rain Light Rain
3:53 PM 39.0 °F 33.4 °F 39.0 °F 100% 29.53 in 0.5 mi East 8.1 mph - 0.01 in Fog Fog
4:00 PM 39.0 °F 33.4 °F 39.0 °F 100% 29.50 in 1.5 mi East 8.1 mph - 0.00 in Rain Light Rain
4:11 PM 39.9 °F 34.5 °F 39.0 °F 97% 29.49 in 2.5 mi ESE 8.1 mph - 0.00 in Rain Light Rain
4:41 PM 39.9 °F 33.9 °F 39.9 °F 100% 29.48 in 1.8 mi SE 9.2 mph - 0.02 in Rain Light Rain
4:53 PM 41.0 °F 34.3 °F 39.9 °F 96% 29.49 in 2.0 mi SE 11.5 mph - 0.03 in Rain Light Rain
5:02 PM 41.0 °F 34.3 °F 41.0 °F 100% 29.47 in 1.5 mi SSE 11.5 mph - 0.00 in Rain Light Rain
5:13 PM 41.0 °F 34.7 °F 41.0 °F 100% 29.47 in 2.0 mi SSE 10.4 mph - 0.00 in Rain Light Rain
5:44 PM 41.0 °F 33.5 °F 41.0 °F 100% 29.45 in 1.8 mi SSE 13.8 mph - 0.01 in Rain Light Rain
5:53 PM 42.1 °F 34.9 °F 41.0 °F 96% 29.46 in 1.5 mi SSE 13.8 mph - 0.01 in Rain Light Rain
6:30 PM 42.1 °F 35.7 °F 42.1 °F 100% 29.42 in 2.0 mi South 11.5 mph - 0.03 in Rain Light Rain
6:53 PM 42.1 °F 36.6 °F 42.1 °F 100% 29.44 in 1.8 mi South 9.2 mph - 0.04 in Rain Light Rain
7:16 PM 43.0 °F 38.2 °F 42.1 °F 97% 29.41 in 0.8 mi South 8.1 mph - 0.00 in Rain Light Rain
7:35 PM 43.0 °F 38.2 °F 43.0 °F 100% 29.40 in 1.2 mi South 8.1 mph - 0.02 in Rain Light Rain
7:53 PM 43.0 °F 38.2 °F 43.0 °F 100% 29.41 in 1.0 mi South 8.1 mph - 0.03 in   Overcast
8:53 PM 44.1 °F 39.0 °F 44.1 °F 100% 29.40 in 1.2 mi SSW 9.2 mph - N/A   Overcast
9:06 PM 44.1 °F 38.6 °F 44.1 °F 100% 29.39 in 2.5 mi SSW 10.4 mph - N/A   Overcast
9:31 PM 44.1 °F 38.6 °F 44.1 °F 100% 29.38 in 3.0 mi SSW 10.4 mph - N/A   Overcast
9:53 PM 45.0 °F 38.9 °F 44.1 °F 97% 29.41 in 3.0 mi WSW 12.7 mph - N/A   Overcast
10:15 PM 43.0 °F 36.4 °F 42.1 °F 97% 29.40 in 9.0 mi WSW 12.7 mph - N/A   Overcast
10:37 PM 41.0 °F 30.0 °F 37.9 °F 89% 29.43 in 10.0 mi West 28.8 mph 39.1 mph N/A   Overcast
10:51 PM 39.2 °F 29.8 °F 35.6 °F 87% 29.43 in 10.0 mi WSW 18.4 mph 33.4 mph N/A   Overcast
10:53 PM 39.0 °F 29.0 °F 36.0 °F 89% 29.45 in 10.0 mi WSW 20.7 mph 33.4 mph N/A   Overcast
11:00 PM 39.0 °F 30.6 °F 36.0 °F 89% 29.44 in 10.0 mi WSW 15.0 mph 28.8 mph N/A   Overcast
11:44 PM 37.9 °F 26.3 °F 33.1 °F 83% 29.48 in 10.0 mi WSW 26.5 mph 39.1 mph N/A   Overcast
11:53 PM 37.0 °F 25.1 °F 33.1 °F 86% 29.52 in 10.0 mi West 26.5 mph 35.7 mph N/A   Overcast